Date String (YYYY-MM-DD hh:mm:ss) UTC,Instrument flags,Ambient pressure (hPa),Sample flow (lpm),Bypass flow (lpm),Sample temperature (°C),Ambient temperature (°C),ASC tube jacket temperature (°C),LED temperature (°C),Box temperature (°C),Sample RH (%),Span deviation,Mass concentration (μg/m³),Mass concentration (μg/m³),Mass concentration (μg/m³)
DateTimeUTC,F1_M11,P_M11,Q1_M11,Q2_M11,T1_M11,T2_M11,T3_M11,T4_M11,T5_M11,U1_M11,ZSPAN_M11,X0_M11,X2_M11,X1_M11
2022-08-18 10:00:00,,0831.0,5.01,0.00,30.0,27.6,00.0,38.8,31.5,19.9,0000.0,0007.72,0005.10,0004.73
2022-08-18 10:01:00,,0831.1,4.99,0.00,29.9,27.6,00.0,38.8,31.5,20.0,0000.0,0007.69,0005.09,0004.74
2022-08-18 10:02:00,,0831.0,5.01,0.00,29.9,27.7,00.0,38.8,31.5,19.8,0000.0,0007.58,0005.06,0004.73
2022-08-18 10:03:00,,0831.0,5.00,0.00,29.8,27.9,00.0,38.7,31.6,19.9,0000.0,0007.54,0005.04,0004.72
2022-08-18 10:04:00,,0831.1,5.01,0.00,29.8,28.0,00.0,38.7,31.6,19.9,0000.0,0007.62,0005.06,0004.73
2022-08-18 10:05:00,,0831.0,5.00,0.00,29.8,28.1,00.0,38.7,31.6,20.3,0000.0,0007.64,0005.07,0004.74
2022-08-18 10:06:00,,0831.0,4.99,0.00,29.8,28.2,00.0,38.7,31.6,20.2,0000.0,0007.55,0005.06,0004.75
2022-08-18 10:07:00,,0831.1,5.00,0.00,29.8,28.3,00.0,38.7,31.7,19.9,0000.0,0007.50,0005.05,0004.76
2022-08-18 10:08:00,,0831.2,5.01,0.00,29.8,28.4,00.0,38.7,31.7,20.2,0000.0,0007.52,0005.07,0004.78
2022-08-18 10:09:00,,0831.2,5.00,0.00,29.8,28.5,00.0,38.7,31.7,20.3,0000.0,0007.55,0005.09,0004.80
2022-08-18 10:10:00,,0831.2,5.00,0.00,29.9,28.6,00.0,38.7,31.7,20.3,0000.0,0007.53,0005.07,0004.79
2022-08-18 10:11:00,,0831.2,5.01,0.00,29.9,28.6,00.0,38.7,31.7,20.4,0000.0,0007.59,0005.09,0004.79
2022-08-18 10:12:00,,0831.2,5.00,0.00,29.9,28.7,00.0,38.7,31.8,20.5,0000.0,0007.60,0005.08,0004.77
2022-08-18 10:13:00,,0831.2,5.01,0.00,29.9,28.7,00.0,38.7,31.8,20.3,0000.0,0007.64,0005.08,0004.76
2022-08-18 10:14:00,,0831.2,5.00,0.00,29.9,28.8,00.0,38.7,31.8,20.1,0000.0,0007.76,0005.13,0004.78
2022-08-18 10:15:00,,0831.2,4.99,0.00,29.9,28.8,00.0,38.7,31.8,20.1,0000.0,0007.72,0005.12,0004.78
2022-08-18 10:16:00,,0831.2,5.00,0.00,29.9,28.8,00.0,38.7,31.8,20.0,0000.0,0007.68,0005.09,0004.77
2022-08-18 10:17:00,,0831.1,5.00,0.00,30.0,28.9,00.0,38.7,31.9,20.1,0000.0,0007.91,0005.13,0004.77
2022-08-18 10:18:00,,0831.2,5.01,0.00,30.0,28.9,00.0,38.7,31.9,20.3,0000.0,0007.98,0005.13,0004.77
2022-08-18 10:19:00,,0831.1,5.00,0.00,30.0,28.9,00.0,38.7,31.9,20.2,0000.0,0007.94,0005.11,0004.76
2022-08-18 10:20:00,,0831.1,5.00,0.00,30.0,29.0,00.0,38.7,31.9,20.1,0000.0,0008.05,0005.10,0004.73
2022-08-18 10:21:00,,0831.1,5.01,0.00,30.0,29.0,00.0,38.8,32.0,20.0,0000.0,0008.08,0005.10,0004.73
2022-08-18 10:22:00,,0831.1,5.00,0.00,30.1,29.0,00.0,38.8,32.0,19.8,0000.0,0007.98,0005.06,0004.72
2022-08-18 10:23:00,,0831.1,4.99,0.00,30.1,29.0,00.0,38.8,32.0,20.0,0000.0,0008.00,0005.07,0004.72
2022-08-18 10:24:00,,0831.1,4.99,0.00,30.1,29.0,00.0,38.8,32.0,20.0,0000.0,0007.97,0005.06,0004.72
2022-08-18 10:25:00,,0831.1,4.99,0.00,30.1,29.1,00.0,38.8,32.0,19.9,0000.0,0007.85,0005.02,0004.70
2022-08-18 10:26:00,,0831.1,5.00,0.00,30.1,29.1,00.0,38.8,32.0,20.4,0000.0,0007.82,0005.00,0004.69
2022-08-18 10:27:00,,0831.1,5.00,0.00,30.1,29.1,00.0,38.8,32.0,20.0,0000.0,0007.79,0004.99,0004.69
2022-08-18 10:28:00,,0831.1,5.00,0.00,30.1,29.1,00.0,38.9,32.0,19.1,0000.0,0007.57,0004.94,0004.68
2022-08-18 10:29:00,,0831.1,5.00,0.00,30.2,29.1,00.0,38.9,32.1,18.7,0000.0,0007.45,0004.93,0004.66
2022-08-18 10:30:00,,0831.0,5.00,0.00,30.2,29.1,00.0,38.9,32.1,18.5,0000.0,0007.51,0004.93,0004.65
2022-08-18 10:31:00,,0831.0,5.00,0.00,30.2,29.2,00.0,38.9,32.1,18.4,0000.0,0007.53,0004.92,0004.63
2022-08-18 10:32:00,,0831.0,5.00,0.00,30.2,29.2,00.0,38.9,32.1,18.0,0000.0,0007.64,0004.91,0004.61
2022-08-18 10:33:00,,0831.0,5.01,0.00,30.2,29.2,00.0,38.9,32.1,17.8,0000.0,0008.11,0004.93,0004.59
2022-08-18 10:34:00,,0831.0,5.00,0.00,30.2,29.2,00.0,38.9,32.1,17.7,0000.0,0008.30,0004.92,0004.57
2022-08-18 10:35:00,,0831.0,5.00,0.00,30.2,29.2,00.0,39.0,32.1,17.6,0000.0,0008.27,0004.91,0004.56
2022-08-18 10:36:00,,0831.0,4.99,0.00,30.3,29.2,00.0,39.0,32.1,17.6,0000.0,0008.42,0004.92,0004.54
2022-08-18 10:37:00,,0831.1,5.01,0.00,30.3,29.2,00.0,39.0,32.1,17.6,0000.0,0008.57,0004.91,0004.52
2022-08-18 10:38:00,,0831.0,5.01,0.00,30.3,29.2,00.0,39.0,32.2,17.6,0000.0,0008.73,0004.92,0004.51
2022-08-18 10:39:00,,0831.1,5.00,0.00,30.3,29.2,00.0,39.0,32.2,17.2,0000.0,0008.81,0004.94,0004.51
2022-08-18 10:40:00,,0831.0,5.00,0.00,30.3,29.2,00.0,39.0,32.2,16.8,0000.0,0008.82,0004.96,0004.53
2022-08-18 10:41:00,,0831.0,4.99,0.00,30.3,29.2,00.0,39.0,32.2,16.4,0000.0,0009.11,0005.00,0004.56
2022-08-18 10:42:00,,0830.9,4.99,0.00,30.3,29.0,00.0,39.0,32.1,16.5,0000.0,0009.18,0005.01,0004.59
2022-08-18 10:43:00,,0830.9,5.01,0.00,30.2,28.2,00.0,38.9,31.9,16.7,0000.0,0009.10,0005.03,0004.63
2022-08-18 10:44:00,,0830.9,5.01,0.00,30.2,27.7,00.0,38.9,31.8,16.9,0000.0,0008.68,0005.02,0004.67
2022-08-18 10:45:00,,0830.9,4.99,0.00,30.0,27.5,00.0,38.9,31.5,17.2,0000.0,0008.44,0005.04,0004.70
2022-08-18 10:46:00,,0830.9,5.00,0.00,29.9,27.6,00.0,38.8,31.5,17.4,0000.0,0008.47,0005.07,0004.74
2022-08-18 10:47:00,,0830.9,5.01,0.00,29.9,27.7,00.0,38.8,31.5,17.6,0000.0,0008.56,0005.10,0004.78
2022-08-18 10:48:00,,0830.9,4.99,0.00,29.8,27.8,00.0,38.8,31.5,17.2,0000.0,0008.63,0005.13,0004.82
2022-08-18 10:49:00,,0830.9,5.00,0.00,29.8,27.9,00.0,38.7,31.6,17.5,0000.0,0008.52,0005.16,0004.86
2022-08-18 10:50:00,,0830.9,5.00,0.00,29.8,28.0,00.0,38.7,31.6,18.0,0000.0,0008.50,0005.18,0004.88
2022-08-18 10:51:00,,0830.9,4.99,0.00,29.8,28.1,00.0,38.7,31.6,18.5,0000.0,0008.56,0005.19,0004.90
2022-08-18 10:52:00,,0830.9,5.00,0.00,29.8,28.2,00.0,38.7,31.6,19.5,0000.0,0008.94,0005.20,0004.90
2022-08-18 10:53:00,,0830.9,5.00,0.00,29.8,28.3,00.0,38.7,31.6,19.4,0000.0,0008.75,0005.19,0004.90
2022-08-18 10:54:00,,0830.9,5.00,0.00,29.8,28.3,00.0,38.6,31.6,18.9,0000.0,0008.65,0005.21,0004.91
2022-08-18 10:55:00,,0830.9,5.00,0.00,29.8,28.4,00.0,38.6,31.6,18.7,0000.0,0008.64,0005.22,0004.92
2022-08-18 10:56:00,,0830.9,5.00,0.00,29.8,28.4,00.0,38.6,31.6,18.4,0000.0,0008.61,0005.21,0004.93
2022-08-18 10:57:00,,0830.8,5.01,0.00,29.8,28.5,00.0,38.6,31.7,17.7,0000.0,0008.80,0005.22,0004.94
2022-08-18 10:58:00,,0830.8,5.00,0.00,29.8,28.5,00.0,38.6,31.7,17.1,0000.0,0008.87,0005.24,0004.96
2022-08-18 10:59:00,,0830.7,5.00,0.00,29.8,28.6,00.0,38.6,31.7,16.4,0000.0,0008.59,0005.26,0004.97
